This is the latest recevied weather packets stored in our database for station/object K7NDG. If no packets are shown the sender has not sent any weather packets the latest 10 day(s).
| Time | Temp. | Humidity | Pressure | Rain* | Wind** | Luminosity | Snow |
|---|---|---|---|---|---|---|---|
| 1777474701 | 5.56° C | 93% | 1026.6 hPa | 0 mm | - | 94 W/m² | - |
| 1777473488 | 5° C | 93% | 1026.6 hPa | 0 mm | - | 71 W/m² | - |
| 1777473184 | 5° C | 93% | 1026.6 hPa | 0 mm | - | 64 W/m² | - |
| 1777472881 | 4.44° C | 93% | 1026.6 hPa | 0 mm | - | 62 W/m² | - |
| 1777472577 | 4.44° C | 93% | 1026.4 hPa | 0 mm | - | 64 W/m² | - |
| 1777472274 | 3.89° C | 93% | 1026.5 hPa | 0 mm | - | 49 W/m² | - |
| 1777471970 | 3.89° C | 92% | 1026.6 hPa | 0 mm | - | 43 W/m² | - |
| 1777471667 | 3.89° C | 92% | 1026.4 hPa | 0 mm | - | 38 W/m² | - |
| 1777470453 | 3.89° C | 91% | 1026.2 hPa | 0 mm | - | 22 W/m² | - |
| 1777469846 | 3.89° C | 91% | 1026.3 hPa | 0 mm | - | 16 W/m² | - |
| 1777469541 | 3.89° C | 91% | 1026.4 hPa | 0 mm | - | 12 W/m² | - |
| 1777469236 | 3.89° C | 90% | 1026.4 hPa | 0 mm | - | 10 W/m² | - |
| 1777468931 | 3.89° C | 90% | 1026.4 hPa | 0 mm | - | 5 W/m² | - |
| 1777468628 | 3.89° C | 90% | 1026.3 hPa | 0 mm | - | 5 W/m² | - |
| 1777468020 | 3.89° C | 90% | 1026.5 hPa | 0 mm | - | 1 W/m² | - |
| 1777467412 | 3.33° C | 90% | 1026.4 hPa | 0 mm | - | 0 W/m² | - |
| 1777466805 | 3.33° C | 90% | 1026.2 hPa | 0 mm | - | 0 W/m² | - |
| 1777466199 | 3.33° C | 90% | 1026.2 hPa | 0 mm | - | 0 W/m² | - |
| 1777465591 | 3.33° C | 90% | 1026.1 hPa | 0 mm | - | 0 W/m² | - |
| 1777465287 | 3.33° C | 89% | 1026.2 hPa | 0 mm | - | 0 W/m² | - |
| 1777464676 | 3.33° C | 89% | 1026.3 hPa | 0 mm | - | 0 W/m² | - |
| 1777464069 | 3.33° C | 89% | 1026.1 hPa | 0 mm | - | 0 W/m² | - |
| 1777462546 | 3.33° C | 88% | 1026.1 hPa | 0 mm | - | 0 W/m² | - |
| 1777462242 | 3.33° C | 88% | 1026.1 hPa | 0 mm | - | 0 W/m² | - |
| 1777461938 | 3.33° C | 88% | 1025.9 hPa | 0 mm | - | 0 W/m² | - |
* Rain latest hour (hover to see other rain measurements)
** Current wind speed in m/s (hover to see current wind gust speed)